Weather History for CYMX - March, 2012

Change the Weather History Date:

Tuesday, March 20, 2012

  Actual Average Record
Temperature  
Mean Temperature 54 °F -  
Max Temperature 73 °F 31 °F 73 °F (2012)
Min Temperature 35 °F 16 °F 6 °F (2007)
Degree Days  
Heating Degree Days 11    
Growing Degree Days 4 (Base 50)    
Moisture  
Dew Point 45 °F    
Average Humidity 75    
Maximum Humidity 100    
Minimum Humidity 56    
Precipitation  
Precipitation 0.00 in - - ()
Sea Level Pressure  
Sea Level Pressure 30.23 in    
Wind  
Wind Speed 4 mph ()    
Max Wind Speed 9 mph    
Max Gust Speed -    
Visibility 13.0 miles    
Events      
Averages and records for this station are not official NWS values.
T = Trace of Precipitation, MM = Missing Value Source: Averaged Metar Reports

Daily Weather History Graph

Daily Weather History Graph

Search for Another Location

Airport or City:

Trip Planner

Search our weather history database for the weather conditions in past years. The results will help you decide how hot, cold, wet, or windy it might be!

Date:

Astronomy

Mar. 20, 2012 Rise Set
Actual Time 6:58 AM EDT 7:09 PM EDT
Civil Twilight 6:28 AM EDT 7:39 PM EDT
Nautical Twilight 5:53 AM EDT 8:13 PM EDT
Astronomical Twilight 5:18 AM EDT 8:49 PM EDT
Moon 5:43 AM EDT (3/20) 5:32 PM EDT (3/20)
Length of Visible Light 13h 10m
Length of Day
12h 11m
Waning Crescent, 4% of the Moon is Illuminated
Mar 20
Waning Crescent
Mar 22
New
Mar 30
First Quarter
Apr 6
Full
Apr 13
Last Quarter

Hourly Weather History & Observations

Time (EDT) Temp. Windchill Dew Point Humidity Pressure Visibility Wind Dir Wind Speed Gust Speed Precip Events Conditions
12:00 AM 42.8 °F 41.1 °F 35.6 °F 76% 30.23 in 25.0 mi NNE 3.5 mph - N/A   Clear
1:00 AM 41.0 °F 38.0 °F 35.6 °F 81% 30.23 in 25.0 mi ENE 4.6 mph - N/A   Clear
2:00 AM 42.8 °F 40.1 °F 33.8 °F 70% 30.23 in 25.0 mi NE 4.6 mph - N/A   Clear
3:00 AM 41.0 °F 38.0 °F 35.6 °F 81% 30.23 in 25.0 mi NNE 4.6 mph - N/A   Partly Cloudy
4:00 AM 37.4 °F 33.8 °F 35.6 °F 93% 30.23 in 25.0 mi NE 4.6 mph - N/A   Clear
5:00 AM 39.2 °F 37.0 °F 35.6 °F 87% 30.23 in 25.0 mi NE 3.5 mph - N/A   Partly Cloudy
6:00 AM 37.4 °F - 35.6 °F 93% 30.25 in 25.0 mi ENE 2.3 mph - N/A   Partly Cloudy
7:00 AM 35.6 °F - 33.8 °F 93% 30.27 in 10.0 mi Calm Calm - N/A   Partly Cloudy
8:00 AM 37.4 °F - 35.6 °F 93% 30.27 in 8.0 mi Calm Calm - N/A   Partly Cloudy
9:00 AM 44.6 °F - 37.4 °F 76% 30.28 in 10.0 mi Calm Calm - N/A   Partly Cloudy
10:00 AM 50.0 °F - 37.4 °F 62% 30.29 in 10.0 mi South 3.5 mph - N/A   Partly Cloudy
11:00 AM 57.2 °F - 42.8 °F 59% 30.28 in 15.0 mi SW 4.6 mph - N/A   Partly Cloudy
12:00 PM 59.0 °F - 48.2 °F 67% 30.27 in 15.0 mi SW 5.8 mph - N/A   Partly Cloudy
1:00 PM 64.4 °F - 51.8 °F 64% 30.25 in 15.0 mi SW 8.1 mph - N/A   Clear
2:00 PM 68.0 °F - 53.6 °F 60% 30.23 in 15.0 mi SW 6.9 mph - N/A   Clear
3:00 PM 69.8 °F - 53.6 °F 56% 30.21 in 15.0 mi WSW 9.2 mph - N/A   Clear
4:00 PM 71.6 °F - 57.2 °F 60% 30.20 in 15.0 mi SW 6.9 mph - N/A   Clear
5:00 PM 73.4 °F - 57.2 °F 57% 30.19 in 15.0 mi SW 8.1 mph - N/A   Clear
6:00 PM 73.4 °F - 57.2 °F 57% 30.18 in 25.0 mi WSW 5.8 mph - N/A   Clear
7:00 PM 69.8 °F - 57.2 °F 64% 30.19 in 25.0 mi West 2.3 mph - N/A   Clear
8:00 PM 64.4 °F - 55.4 °F 73% 30.20 in 25.0 mi WSW 2.3 mph - N/A   Clear
9:00 PM 59.0 °F - 55.4 °F 88% 30.22 in 25.0 mi South 2.3 mph - N/A   Clear
10:00 PM 57.2 °F - 53.6 °F 88% 30.24 in 25.0 mi Calm Calm - N/A   Clear
11:00 PM 51.8 °F - 51.8 °F 100% 30.24 in 25.0 mi NNW 3.5 mph - N/A   Clear